Change the Weather History Date:

Tuesday, March 25, 2014

  Actual Average Record
Temperature  
Mean Temperature 17 °F 35 °F  
Max Temperature 23 °F 43 °F 73 °F (2007)
Min Temperature 11 °F 26 °F 0 °F (1960)
Degree Days  
Heating Degree Days 48 30  
Month to date heating degree days 1111 886  
Since 1 July heating degree days 7592 6726  
Cooling Degree Days 0 0  
Month to date cooling degree days 0 0  
Year to date cooling degree days 0 0  
Moisture  
Dew Point 7 °F    
Average Humidity 70    
Maximum Humidity 92    
Minimum Humidity 47    
Precipitation  
Precipitation 0.00 in 0.07 in 1.49 in (1920)
Month to date precipitation 0.41 1.45  
Year to date precipitation 3.20 3.69  
Snow  
Snow 0.00 in 0.20 in 6.50 in (1923)
Month to date snowfall 5.1 7.1  
Since 1 July snowfall 67.4 47.3  
Snow Depth 3.00 in    
Sea Level Pressure  
Sea Level Pressure 30.11 in    
Wind  
Wind Speed 13 mph (WNW)    
Max Wind Speed 24 mph    
Max Gust Speed 29 mph    
Visibility 10 miles    
Events      
T = Trace of Precipitation, MM = Missing Value Source: NWS Daily Summary

Daily Weather History Graph

Daily Weather History Graph

Search for Another Location

Airport or City:

Trip Planner

Search our weather history database for the weather conditions in past years. The results will help you decide how hot, cold, wet, or windy it might be!

Date:

Astronomy

Mar. 25, 2014 Rise Set
Actual Time 6:46 AM CDT 7:11 PM CDT
Civil Twilight 6:17 AM CDT 7:40 PM CDT
Nautical Twilight 5:43 AM CDT 8:14 PM CDT
Astronomical Twilight 5:07 AM CDT 8:50 PM CDT
Moon 3:19 AM CDT (3/25) 1:30 PM CDT (3/25)
Length of Visible Light 13h 23m
Length of Day
12h 24m
Waning Crescent, 32% of the Moon is Illuminated
Mar 25
Waning Crescent
Mar 30
New
Apr 7
First Quarter
Apr 15
Full
Apr 22
Last Quarter

Hourly Weather History & Observations

Time (CDT) Temp. Windchill Dew Point Humidity Pressure Visibility Wind Dir Wind Speed Gust Speed Precip Events Conditions
12:53 AM 19.9 °F 10.1 °F 16.0 °F 85% 30.01 in 8.0 mi West 8.1 mph - N/A   Scattered Clouds
1:53 AM 19.0 °F 8.2 °F 15.1 °F 85% 30.01 in 8.0 mi West 9.2 mph - N/A   Partly Cloudy
2:53 AM 17.1 °F 5.8 °F 12.9 °F 84% 30.00 in 10.0 mi West 9.2 mph - N/A   Clear
3:53 AM 16.0 °F 3.6 °F 12.0 °F 84% 29.99 in 10.0 mi West 10.4 mph - N/A   Clear
4:53 AM 16.0 °F 3.6 °F 10.0 °F 77% 30.00 in 10.0 mi West 10.4 mph - N/A   Clear
5:53 AM 10.9 °F 1.4 °F 8.1 °F 88% 30.01 in 10.0 mi WNW 5.8 mph - N/A   Clear
6:53 AM 15.1 °F 2.5 °F 8.1 °F 74% 30.04 in 10.0 mi NW 10.4 mph - N/A   Scattered Clouds
7:53 AM 15.1 °F 1.8 °F 7.0 °F 70% 30.07 in 10.0 mi NW 11.5 mph - N/A   Clear
8:53 AM 15.1 °F 1.1 °F 5.0 °F 64% 30.09 in 10.0 mi NW 12.7 mph 25.3 mph N/A   Clear
9:53 AM 16.0 °F 0.1 °F 5.0 °F 62% 30.12 in 10.0 mi NNW 17.3 mph 25.3 mph N/A   Clear
10:53 AM 18.0 °F 3.6 °F 5.0 °F 57% 30.12 in 10.0 mi NNW 15.0 mph - N/A   Partly Cloudy
11:53 AM 19.0 °F 6.1 °F 5.0 °F 54% 30.14 in 10.0 mi WNW 12.7 mph - N/A   Scattered Clouds
12:53 PM 19.0 °F 2.7 °F 5.0 °F 54% 30.14 in 10.0 mi West 20.7 mph 25.3 mph N/A   Mostly Cloudy
1:53 PM 19.9 °F 4.8 °F 3.9 °F 50% 30.13 in 10.0 mi West 18.4 mph 25.3 mph N/A   Scattered Clouds
2:53 PM 21.0 °F 8.6 °F 5.0 °F 50% 30.12 in 10.0 mi WNW 12.7 mph - N/A   Mostly Cloudy
3:53 PM 21.9 °F 8.2 °F 5.0 °F 48% 30.13 in 10.0 mi West 16.1 mph - N/A   Overcast
4:53 PM 21.9 °F 6.9 °F 5.0 °F 48% 30.13 in 10.0 mi West 19.6 mph 25.3 mph N/A   Overcast
5:53 PM 21.0 °F 8.6 °F 6.1 °F 53% 30.15 in 10.0 mi WNW 12.7 mph 21.9 mph N/A   Partly Cloudy
6:53 PM 19.9 °F 6.2 °F 6.1 °F 55% 30.17 in 10.0 mi West 15.0 mph 21.9 mph N/A   Mostly Cloudy
7:53 PM 18.0 °F 5.4 °F 6.1 °F 60% 30.19 in 10.0 mi West 11.5 mph - N/A   Clear
8:53 PM 17.1 °F 3.0 °F 5.0 °F 59% 30.21 in 10.0 mi West 13.8 mph - N/A   Clear
9:53 PM 16.0 °F 2.3 °F 5.0 °F 62% 30.22 in 10.0 mi West 12.7 mph - N/A   Partly Cloudy
10:53 PM 15.1 °F 2.5 °F 3.9 °F 61% 30.24 in 10.0 mi West 10.4 mph - N/A   Clear
11:53 PM 14.0 °F 2.9 °F 3.9 °F 64% 30.24 in 10.0 mi West 8.1 mph - N/A   Clear